Volver al catálogo

NOAA 16 DEB

ActivoSSO
NORAD 41264·DEBRIS·🇺🇸 United States

Lanzado Sep 21, 2000 desde Vandenberg Space Force Base

Loading…

Próximos Pases (próximas 24 horas)

TLE

ActualizadoSource: Space-Track

Época: Sep 13, 2026, 20:56 UTC

1 41264U 00055FQ  26256.87273912  .00001925  00000-0  79509-3 0  9997
2 41264  98.6210 311.0082 0003705 171.7919 188.3323 14.27898082554483

Sigue NOAA 16 DEB en tiempo real con AllMySat

Download on the App Store